Location: Trebic
(49.2170°N, 15.8830°E)
Time: 22:18:17
(UTC+02:00)

Transit 4A - Pass Details

Date: 28 August 2019
Orbit: 866 x 978 km, 66.8° (Epoch: 13 October)

Event Time Altitude Azimuth Distance (km) Brightness Sun altitude
Rises 19:02:46 0° 237° (WSW) 3,669 11.9 6.5°
Reaches altitude 10° 19:05:27 10° 244° (WSW) 2,726 11.4 6.0°
Maximum altitude 19:11:34 46° 316° (NW) 1,291 9.3 5.0°
Drops below altitude 10° 19:17:40 10° 29° (NNE) 2,709 10.2 4.1°
Sets 19:20:20 0° 36° (NE) 3,645 10.7 3.6°
